IRNSS-1A

Last updated on Jan. 26, 2020, 4:40 a.m. UTC

1 39199U 13034A   20025.78244190  .00000068  00000-0  00000+0 0  9999
2 39199  30.5657  99.0899 0020555 189.6925 172.4286  1.00272437 24248
UTC
Height (km)
Latitude
Longitude
Inclination
Orbital Period
UTC large
Height (km)
Speed (km/s)
/
Latitude / Longitude
Inclination (degrees)
Orbital Period (minutes)
Azimuth
Elevation
Range (km)
Doppler Factor
iOS Compass Heading
iOS Angle

Next 30 passes for location: Hong Kong

Rise time Rise Azimuth (degrees) Set time Set Azimuth (degrees) Duration Max altitude (degrees)

No matching passes for this satellites